EW0813 Weather Reports


time (UTC)temp
C
wind
direction
speed
KPH
gust
KPH
rain 1hr
cm
rain 24hr
cm
rain mn
cm
humidity
%
barometer
mb
20260507060534 23 44 4.8 8.0 0.00 0.00 0.00 89 567.6
20260507060126 23 38 4.8 8.0 0.00 0.00 0.00 89 567.6
20260507055522 23 34 3.2 9.7 0.00 0.00 0.00 89 567.6
20260507055042 23 39 4.8 9.7 0.00 0.00 0.00 89 567.6
20260507054640 23 29 6.4 11.3 0.00 0.00 0.00 89 567.6
20260507054055 23 31 8.0 11.3 0.00 0.00 0.00 89 567.6
20260507053539 23 44 3.2 6.4 0.00 0.00 0.00 89 567.6
20260507053157 23 84 3.2 4.8 0.00 0.00 0.00 89 567.6
20260507052612 23 84 1.6 4.8 0.00 0.00 0.00 88 567.6
20260507052027 23 84 3.2 6.4 0.00 0.00 0.00 88 567.6
20260507051709 23 84 3.2 9.7 0.00 0.00 0.00 89 567.6
20260507051033 23 87 4.8 11.3 0.00 0.00 0.00 89 567.6
20260507050523 23 96 9.7 11.3 0.00 0.00 0.00 89 567.6
20260507050228 23 90 6.4 9.7 0.00 0.00 0.00 89 370.9
20260507045538 23 82 4.8 6.4 0.00 0.00 0.00 89 370.9
20260507045023 23 102 1.6 4.8 0.00 0.00 0.00 89 370.9
20260507044732 23 102 1.6 4.8 0.00 0.00 0.00 89 370.9
20260507044015 23 102 1.6 6.4 0.00 0.00 0.00 89 370.9
20260507043544 23 94 4.8 6.4 0.00 0.00 0.00 89 370.9
20260507043238 23 162 1.6 6.4 0.00 0.00 0.00 88 1694.6
20260507042539 23 200 3.2 6.4 0.00 0.00 0.00 88 1694.6
20260507042038 23 219 3.2 6.4 0.00 0.00 0.00 88 1694.6
20260507041657 23 251 3.2 6.4 0.00 0.00 0.00 88 1694.6
20260507041023 23 271 1.6 4.8 0.00 0.00 0.00 87 1694.6
20260507040538 23 279 0.0 6.4 0.00 0.00 0.00 87 1694.6
20260507040232 23 312 1.6 6.4 0.00 0.00 0.00 87 1725.6
20260507035533 23 293 3.2 8.0 0.00 0.00 0.00 87 1725.6
20260507035033 23 317 4.8 9.7 0.00 0.00 0.00 87 1725.6
20260507034739 23 298 6.4 9.7 0.00 0.00 0.00 86 1808.3
20260507034110 23 296 4.8 11.3 0.00 0.00 0.00 86 1808.3
20260507033531 24 325 4.8 11.3 0.00 0.00 0.00 86 1808.3
20260507033211 24 273 4.8 12.9 0.00 0.00 0.00 85 122.3
20260507032627 24 256 8.0 16.1 0.00 0.00 0.00 84 122.3
20260507032116 24 253 11.3 16.1 0.00 0.00 0.00 84 122.3
20260507031724 24 234 4.8 8.0 0.00 0.00 0.00 84 122.3
20260507031149 24 254 3.2 6.4 0.00 0.00 0.00 83 122.3
20260507030531 24 219 0.0 4.8 0.00 0.00 0.00 83 122.3
20260507030213 24 223 0.0 4.8 0.00 0.00 0.00 82 122.3
20260507025530 24 252 3.2 6.4 0.00 0.00 0.00 82 122.3
20260507025028 24 285 1.6 6.4 0.00 0.00 0.00 81 122.3
20260507024655 25 278 3.2 9.7 0.00 0.00 0.00 81 122.3
20260507024025 25 302 4.8 12.9 0.00 0.00 0.00 81 122.3
20260507023538 25 281 4.8 12.9 0.00 0.00 0.00 81 122.3
20260507023209 25 266 9.7 11.3 0.00 0.00 0.00 80 206.4
20260507022548 25 269 6.4 9.7 0.00 0.00 0.00 80 206.4
20260507022135 25 274 4.8 9.7 0.00 0.00 0.00 80 206.4
20260507021635 25 257 1.6 4.8 0.00 0.00 0.00 79 206.4
20260507021027 25 229 3.2 8.0 0.00 0.00 0.00 79 206.4
20260507020527 25 313 1.6 8.0 0.00 0.00 0.00 79 206.4
20260507020143 25 288 3.2 6.4 0.00 0.00 0.00 79 702.1
20260507015532 25 312 4.8 6.4 0.00 0.00 0.00 79 702.1
20260507015035 25 301 4.8 6.4 0.00 0.00 0.00 79 702.1
20260507014640 25 309 3.2 6.4 0.00 0.00 0.00 79 702.1
20260507014051 25 24 3.2 12.9 0.00 0.00 0.00 79 702.1
20260507013537 25 32 6.4 12.9 0.00 0.00 0.00 78 702.1
20260507013248 25 61 4.8 8.0 0.00 0.00 0.00 78 702.1
20260507012533 25 44 3.2 8.0 0.00 0.00 0.00 78 702.1
20260507012026 25 26 4.8 8.0 0.00 0.00 0.00 78 702.1
20260507011636 25 16 3.2 6.4 0.00 0.00 0.00 77 702.1
20260507011022 25 38 3.2 8.0 0.00 0.00 0.00 78 702.1
20260507010531 25 54 3.2 9.7 0.00 0.00 0.00 78 702.1
20260507010133 25 87 3.2 9.7 0.00 0.00 0.00 78 702.1
20260507005536 25 57 4.8 12.9 0.00 0.00 0.00 78 702.1
20260507005031 25 34 6.4 17.7 0.00 0.00 0.00 78 702.1
20260507004728 25 19 4.8 17.7 0.00 0.00 0.00 78 702.1
20260507004109 25 83 9.7 16.1 0.00 0.00 0.00 79 702.1
20260507003524 25 97 6.4 14.5 0.00 0.00 0.00 79 702.1
20260507003220 25 41 6.4 12.9 0.00 0.00 0.00 79 1301.8
20260507002531 25 43 3.2 6.4 0.00 0.00 0.00 79 1301.8
20260507002036 25 17 3.2 9.7 0.00 0.00 0.00 79 1301.8
20260507001644 25 13 6.4 9.7 0.00 0.00 0.00 79 1064.0
20260507001127 25 43 6.4 9.7 0.00 0.00 0.00 79 1064.0
20260507000538 25 36 6.4 9.7 0.00 0.00 0.00 79 1064.0
20260507000347 25 51 4.8 8.0 0.00 0.00 0.00 78 815.9
20260506235700 26 68 1.6 3.2 0.00 0.00 0.00 78 815.9
20260506235021 26 68 0.0 4.8 0.00 0.00 0.00 77 815.9
20260506234837 26 68 1.6 4.8 0.00 0.00 0.00 77 1694.6
20260506234132 26 68 0.0 4.8 0.00 0.00 0.00 77 1694.6
20260506233524 26 40 0.0 4.8 0.00 0.00 0.00 77 1694.6
20260506233446 26 23 3.2 8.0 0.00 0.00 0.00 77 1694.6
20260506232543 26 63 4.8 8.0 0.00 0.00 0.00 77 1694.6
20260506232033 26 74 4.8 6.4 0.00 0.00 0.00 76 1694.6
20260506231653 26 74 3.2 6.4 0.00 0.00 0.00 75 1694.6
20260506231213 26 74 3.2 4.8 0.00 0.00 0.00 75 1694.6
20260506230712 26 74 1.6 8.0 0.00 0.00 0.00 75 1694.6
20260506230235 26 38 3.2 8.0 0.00 0.00 0.00 75 1694.6
20260506225553 26 70 4.8 9.7 0.00 0.00 0.00 75 1694.6
20260506225135 26 22 4.8 12.9 0.00 0.00 0.00 75 1694.6
20260506224720 26 22 8.0 12.9 0.00 0.00 0.00 75 206.4
20260506224056 26 342 4.8 9.7 0.00 0.00 0.00 75 206.4
20260506223531 26 360 6.4 12.9 0.00 0.00 0.00 75 206.4
20260506223237 26 355 6.4 12.9 0.00 0.00 0.00 75 1808.3
20260506222710 26 360 6.4 12.9 0.00 0.00 0.00 74 1808.3
20260506222032 26 24 4.8 16.1 0.00 0.00 0.00 74 1808.3
20260506221809 26 12 6.4 16.1 0.00 0.00 0.00 73 1808.3
20260506221032 26 20 9.7 16.1 0.00 0.00 0.00 72 1808.3
20260506220151 26 34 9.7 22.5 0.00 0.00 0.00 71 950.3
20260506215546 27 42 12.9 24.1 0.00 0.00 0.00 70 950.3
20260506215025 27 49 16.1 24.1 0.00 0.00 0.00 72 950.3
20260506214715 27 32 9.7 19.3 0.00 0.00 0.00 81 950.3
20260506214028 27 19 6.4 11.3 0.00 0.00 0.00 84 950.3
20260506213523 27 31 4.8 8.0 0.00 0.00 0.00 84 950.3
20260506213225 27 17 3.2 9.7 0.00 0.00 0.00 85 867.6
20260506212523 27 313 3.2 9.7 0.00 0.00 0.00 85 867.6
20260506212209 26 5 4.8 9.7 0.00 0.00 0.00 85 867.6
20260506211705 26 349 4.8 11.3 0.00 0.00 0.00 85 2056.3
20260506211113 26 14 6.4 16.1 0.00 0.00 0.00 85 2056.3
20260506210703 26 73 8.0 20.9 0.00 0.00 0.00 86 2056.3
20260506210239 26 40 11.3 19.3 0.00 0.00 0.00 86 1632.6
20260506205553 26 55 4.8 8.0 0.00 0.00 0.00 85 1632.6
20260506205111 26 155 0.0 3.2 0.00 0.00 0.00 86 1632.6
20260506204718 26 155 1.6 8.0 0.00 0.00 0.00 86 289.3
20260506204110 26 150 3.2 9.7 0.00 0.00 0.00 85 289.3
20260506203627 26 143 4.8 8.0 0.00 0.00 0.00 85 289.3
20260506203315 26 198 4.8 8.0 0.00 0.00 0.00 85 289.3
20260506202634 26 229 3.2 8.0 0.00 0.00 0.00 85 289.3
20260506202119 26 250 4.8 12.9 0.00 0.00 0.00 85 289.3
20260506201705 26 263 4.8 14.5 0.00 0.00 0.00 85 289.3
20260506201153 27 263 8.0 14.5 0.00 0.00 0.00 84 289.3
20260506200612 27 256 6.4 14.5 0.00 0.00 0.00 84 289.3
20260506200226 27 247 4.8 14.5 0.00 0.00 0.00 83 289.3
20260506195605 27 225 6.4 12.9 0.00 0.00 0.00 83 289.3
20260506195028 27 246 6.4 12.9 0.00 0.00 0.00 82 289.3
20260506194857 27 230 6.4 11.3 0.00 0.00 0.00 82 299.6
20260506194149 27 247 6.4 12.9 0.00 0.00 0.00 81 299.6
20260506193614 27 246 6.4 16.1 0.00 0.00 0.00 81 299.6
20260506193221 27 255 8.0 16.1 0.00 0.00 0.00 80 299.6
20260506192616 27 263 8.0 16.1 0.00 0.00 0.00 79 299.6
20260506192043 27 241 9.7 17.7 0.00 0.00 0.00 79 299.6
20260506191740 28 232 11.3 17.7 0.00 0.00 0.00 78 299.6
20260506191210 28 250 8.0 17.7 0.00 0.00 0.00 77 299.6
20260506190708 28 242 11.3 19.3 0.00 0.00 0.00 77 299.6
20260506190225 28 257 12.9 19.3 0.00 0.00 0.00 76 237.5
20260506185647 28 239 9.7 16.1 0.00 0.00 0.00 76 237.5
20260506185036 28 248 11.3 19.3 0.00 0.00 0.00 75 237.5
20260506184911 28 267 9.7 22.5 0.00 0.00 0.00 74 153.4
20260506184048 28 265 16.1 22.5 0.00 0.00 0.00 73 153.4
20260506183617 29 248 14.5 24.1 0.00 0.00 0.00 72 153.4
20260506183236 29 271 17.7 27.4 0.00 0.00 0.00 72 153.4
20260506182641 30 267 14.5 22.5 0.00 0.00 0.00 70 153.4
20260506182024 30 256 14.5 24.1 0.00 0.00 0.00 70 153.4
20260506181816 30 261 14.5 24.1 0.00 0.00 0.00 69 153.4
20260506181147 30 247 14.5 25.7 0.00 0.00 0.00 69 153.4
20260506180516 30 236 14.5 25.7 0.00 0.00 0.00 68 153.4
20260506180512 30 270 19.3 25.7 0.00 0.00 0.00 67 215.6
20260506175610 31 295 20.9 25.7 0.00 0.00 0.00 65 215.6
20260506175047 31 249 16.1 22.5 0.00 0.00 0.00 65 215.6
20260506174805 31 213 14.5 24.1 0.00 0.00 0.00 64 215.6
20260506174052 31 271 16.1 25.7 0.00 0.00 0.00 63 215.6
20260506173521 31 277 17.7 27.4 0.00 0.00 0.00 63 215.6
20260506173424 31 264 20.9 27.4 0.00 0.00 0.00 62 215.6
20260506172644 31 253 20.9 27.4 0.00 0.00 0.00 61 215.6
20260506172013 32 263 16.1 29.0 0.00 0.00 0.00 62 215.6
20260506171137 32 273 16.1 37.0 0.00 0.00 0.00 60 474.5
20260506170524 32 275 19.3 37.0 0.00 0.00 0.00 60 474.5
20260506170359 32 261 20.9 30.6 0.00 0.00 0.00 61 227.1
20260506165551 32 277 20.9 29.0 0.00 0.00 0.00 62 227.1
20260506165126 32 274 14.5 29.0 0.00 0.00 0.00 64 227.1
20260506164651 32 267 19.3 27.4 0.00 0.00 0.00 63 227.1
20260506164144 32 264 16.1 30.6 0.00 0.00 0.00 64 227.1
20260506163519 32 257 19.3 30.6 0.00 0.00 0.00 63 227.1
20260506163310 32 246 17.7 29.0 0.00 0.00 0.00 63 227.1
20260506162714 32 259 16.1 27.4 0.00 0.00 0.00 63 227.1
20260506162149 32 279 19.3 30.6 0.00 0.00 0.00 62 227.1
20260506161740 32 251 19.3 30.6 0.00 0.00 0.00 61 227.1
20260506161213 32 265 20.9 29.0 0.00 0.00 0.00 62 227.1
20260506160717 32 269 20.9 27.4 0.00 0.00 0.00 62 227.1
20260506160317 32 279 16.1 30.6 0.00 0.00 0.00 62 288.1
20260506155549 32 275 19.3 30.6 0.00 0.00 0.00 60 288.1
20260506155057 33 225 17.7 29.0 0.00 0.00 0.00 61 288.1
20260506154910 33 240 17.7 24.1 0.00 0.00 0.00 61 288.1
20260506154111 33 250 16.1 25.7 0.00 0.00 0.00 63 288.1
20260506153634 33 266 16.1 30.6 0.00 0.00 0.00 63 288.1
20260506153334 33 269 16.1 30.6 0.00 0.00 0.00 64 288.1
20260506152542 33 219 16.1 27.4 0.00 0.00 0.00 63 288.1
20260506152159 33 219 19.3 27.4 0.00 0.00 0.00 63 288.1
20260506151813 33 245 14.5 24.1 0.00 0.00 0.00 62 288.1
20260506151128 33 228 16.1 25.7 0.00 0.00 0.00 62 288.1
20260506150547 33 254 16.1 25.7 0.00 0.00 0.00 62 288.1
20260506145549 33 256 14.5 29.0 0.00 0.00 0.00 64 1725.6
20260506145057 33 271 17.7 29.0 0.00 0.00 0.00 64 1725.6
20260506144829 33 263 16.1 29.0 0.00 0.00 0.00 64 1725.6
20260506144058 33 253 17.7 32.2 0.00 0.00 0.00 63 1725.6
20260506143613 34 245 12.9 25.7 0.00 0.00 0.00 64 1725.6
20260506143249 34 265 14.5 25.7 0.00 0.00 0.00 64 1229.5
20260506142634 34 261 14.5 25.7 0.00 0.00 0.00 64 1229.5
20260506142202 34 304 16.1 30.6 0.00 0.00 0.00 64 1229.5
20260506141800 34 269 19.3 30.6 0.00 0.00 0.00 63 546.9
20260506141027 35 261 17.7 30.6 0.00 0.00 0.00 62 546.9
20260506140706 35 295 16.1 25.7 0.00 0.00 0.00 60 546.9
20260506140219 35 260 11.3 25.7 0.00 0.00 0.00 59 546.9
20260506135611 36 263 16.1 25.7 0.00 0.00 0.00 58 546.9
20260506135213 36 287 4.8 17.7 0.00 0.00 0.00 54 546.9
20260506134749 36 152 1.6 17.7 0.00 0.00 0.00 49 546.9
20260506134016 36 206 8.0 16.1 0.00 0.00 0.00 49 546.9
20260506133558 36 250 11.3 16.1 0.00 0.00 0.00 49 546.9
20260506133233 36 281 8.0 17.7 0.00 0.00 0.00 49 546.9
20260506132659 36 314 12.9 19.3 0.00 0.00 0.00 50 546.9
20260506132059 36 296 14.5 20.9 0.00 0.00 0.00 49 546.9
20260506131828 36 302 12.9 20.9 0.00 0.00 0.00 49 546.9
20260506131051 36 63 4.8 11.3 0.00 0.00 0.00 50 546.9
20260506130549 35 134 4.8 16.1 0.00 0.00 0.00 51 546.9
20260506130128 35 248 6.4 22.5 0.00 0.00 0.00 52 546.9
20260506125611 35 297 12.9 24.1 0.00 0.00 0.00 53 546.9
20260506125150 34 275 17.7 24.1 0.00 0.00 0.00 53 546.9
20260506124843 34 303 3.2 17.7 0.00 0.00 0.00 53 215.6
20260506124157 35 65 8.0 17.7 0.00 0.00 0.00 52 215.6
20260506123327 35 319 12.9 24.1 0.00 0.00 0.00 52 1146.8
20260506122642 34 321 8.0 24.1 0.00 0.00 0.00 53 1146.8
20260506122042 34 311 4.8 20.9 0.00 0.00 0.00 53 1146.8
20260506121748 34 298 12.9 20.9 0.00 0.00 0.00 54 402.0
20260506121115 33 323 12.9 22.5 0.00 0.00 0.00 53 402.0
20260506120624 33 296 12.9 22.5 0.00 0.00 0.00 56 402.0
20260506120211 33 320 6.4 19.3 0.00 0.00 0.00 57 971.0
20260506115701 33 13 4.8 20.9 0.00 0.00 0.00 57 971.0
20260506115143 33 319 9.7 19.3 0.00 0.00 0.00 56 971.0
20260506114719 33 321 9.7 19.3 0.00 0.00 0.00 55 2128.6
20260506114121 33 301 9.7 24.1 0.00 0.00 0.00 56 2128.6
20260506113643 33 271 3.2 24.1 0.00 0.00 0.00 58 2128.6
20260506113204 33 304 6.4 17.7 0.00 0.00 0.00 59 2128.6
20260506112548 33 304 4.8 20.9 0.00 0.00 0.00 59 2128.6
20260506112033 32 281 12.9 20.9 0.00 0.00 0.00 59 2128.6
20260506111828 32 318 8.0 20.9 0.00 0.00 0.00 60 2128.6
20260506111050 32 54 6.4 19.3 0.00 0.00 0.00 61 2128.6
20260506110604 32 329 11.3 19.3 0.00 0.00 0.00 61 2128.6
20260506110315 32 355 8.0 17.7 0.00 0.00 0.00 61 971.0
20260506105610 32 325 9.7 17.7 0.00 0.00 0.00 62 971.0
20260506105038 32 41 8.0 17.7 0.00 0.00 0.00 62 971.0
20260506104853 32 324 11.3 17.7 0.00 0.00 0.00 63 971.0
20260506104142 31 309 6.4 17.7 0.00 0.00 0.00 63 971.0
20260506103641 31 306 9.7 17.7 0.00 0.00 0.00 63 971.0
20260506103247 31 307 6.4 16.1 0.00 0.00 0.00 64 971.0
20260506102639 31 296 6.4 17.7 0.00 0.00 0.00 65 971.0
20260506102112 31 32 9.7 17.7 0.00 0.00 0.00 66 971.0
20260506101722 30 273 11.3 17.7 0.00 0.00 0.00 69 1870.3
20260506101136 30 275 8.0 14.5 0.00 0.00 0.00 70 1870.3
20260506100527 30 22 8.0 12.9 0.00 0.00 0.00 70 1870.3
20260506100352 30 22 6.4 9.7 0.00 0.00 0.00 70 1870.3
20260506095608 30 308 4.8 17.7 0.00 0.00 0.00 71 1870.3
20260506095023 30 26 6.4 17.7 0.00 0.00 0.00 72 1870.3
20260506094843 30 25 8.0 14.5 0.00 0.00 0.00 71 1467.2
20260506094127 30 334 6.4 14.5 0.00 0.00 0.00 73 1467.2
20260506093518 29 340 4.8 12.9 0.00 0.00 0.00 74 1467.2
20260506093322 29 334 8.0 14.5 0.00 0.00 0.00 74 1467.2
20260506092556 29 331 9.7 14.5 0.00 0.00 0.00 75 1467.2
20260506092031 29 360 4.8 12.9 0.00 0.00 0.00 76 1467.2
20260506091813 29 40 6.4 12.9 0.00 0.00 0.00 77 1467.2
20260506091058 29 20 3.2 12.9 0.00 0.00 0.00 77 1467.2
20260506090529 29 17 3.2 8.0 0.00 0.00 0.00 79 1467.2
20260506090219 28 11 1.6 8.0 0.00 0.00 0.00 80 1467.2
20260506085651 28 334 1.6 8.0 0.00 0.00 0.00 80 1467.2
20260506085054 28 325 3.2 8.0 0.00 0.00 0.00 80 1467.2
20260506084724 28 33 3.2 8.0 0.00 0.00 0.00 80 298.4
20260506084118 28 331 3.2 6.4 0.00 0.00 0.00 80 298.4
20260506083547 29 270 1.6 4.8 0.00 0.00 0.00 81 298.4
20260506083442 29 260 0.0 3.2 0.00 0.00 0.00 82 70.4
20260506082606 28 209 0.0 1.6 0.00 0.00 0.00 85 70.4
20260506082019 28 213 0.0 3.2 0.00 0.00 0.00 87 70.4
20260506081758 27 211 1.6 3.2 0.00 0.00 0.00 87 237.5
20260506081104 27 220 0.0 3.2 0.00 0.00 0.00 89 237.5
20260506080610 27 57 0.0 3.2 0.00 0.00 0.00 90 237.5
20260506080248 26 137 0.0 3.2 0.00 0.00 0.00 91 237.5
20260506073343 25 92 0.0 1.6 0.00 0.00 0.00 93 144.2
20260506072551 25 153 0.0 0.0 0.00 0.00 0.00 93 144.2
20260506072037 25 157 0.0 0.0 0.00 0.00 0.00 93 144.2
20260506071743 25 224 0.0 0.0 0.00 0.00 0.00 93 144.2
20260506071031 25 224 0.0 1.6 0.00 0.00 0.00 93 144.2
20260506070537 25 224 0.0 3.2 0.00 0.00 0.00 93 144.2
20260506070303 25 224 0.0 3.2 0.00 0.00 0.00 93 144.2
20260506062022 25 92 3.2 4.8 0.00 0.08 0.00 93 144.2
20260506061639 25 92 1.6 3.2 0.00 0.08 0.00 93 144.2
20260506061147 25 92 0.0 3.2 0.00 0.08 0.00 93 144.2